www.pogodaiklimat.ru

Погода и климат >> Архив погоды >> Россия >> Нижегородская область >> Павлово


ПОГОДА в Павлово

  • Прогноз погоды в Павлово
  • Монитор погоды в Павлово
  • Климат города

АРХИВ ПОГОДЫ в Павлово

Время (UTC), дата Ветер
(напр.,м/с)
 
Видим.   Явления Облачность Т
(С)
Тd
(С)
f
(%)
Тe
(С)
Тes
(С)
Комфортность P
(гПа)
Po
(гПа)
Тmin
(С)
Tmax
(С)
R
(мм)
R24
(мм)
S
(см)
03 14.10 штиль 0
{3}
20 км 10/10 300 м
[Sc]
+7.3 +6.2 93 +6 +6 1024.2 1008.0 +7.3
06 14.10 штиль 0
{2}
50 км 10/10 300 м
[Frnb]
+7.9 +5.6 85 +7 +7 1024.6 1008.4 +7.1
09 14.10 З 1-2
{2}
50 км 10/10 1000 м
[Sc]
+9.7 +5.8 77 +9 +9 1024.6 1008.5
12 14.10 З 1-2
{2}
50 км {дождь} 10/10 1000 м
[Sc]
+10.3 +6.2 76 +10 +10 1023.7 1007.7
15 14.10 З 2-3
{4}
10 км слабый дождь 10/10 300 м
[Frnb]
+9.3 +8.2 93 +7 +7 1023.2 1007.2 +10.6 0.0
18 14.10 З 2-6
{6}
20 км {дождь} 10/10 1000 м
[Sc]
+9.3 +8.6 95 +7 +7 1022.0 1006.0
21 14.10 З 3-5
{6}
20 км 9/9 1000 м
[Sc]
+10.1 +9.5 96 +8 +8 1021.1 1005.2
00 15.10 З 2-3
{5}
20 км ясно +9.7 +9.0 95 +8 +8 1021.8 1005.8
03 15.10 СЗ 2-3
{4}
20 км 6/6 1000 м
[Sc]
+10.5 +9.5 94 +9 +9 1022.5 1006.6 +8.9 0.0
06 15.10 З 2-4
{6}
50 км ясно +10.7 +9.3 91 +9 +10 1022.6 1006.7 +9.3
09 15.10 СЗ 3-2
{2}
50 км ясно +16.0 +10.2 68 +16 +18 1022.5 1006.9
12 15.10 З 3-6
{8}
50 км ясно +19.4 +8.9 51 +21 +22 комфорт 1022.4 1006.9
15 15.10 З 3-4
{6}
20 км ясно +15.9 +9.3 65 +15 +15 1023.0 1007.4 +19.6
18 15.10 З 3-5
{6}
20 км ясно +12.9 +8.1 73 +12 +12 1023.8 1007.9
21 15.10 З 3-5
{5}
20 км ясно +9.8 +7.6 86 +8 +8 1024.3 1008.2
00 16.10 З 2-3
{5}
20 км ясно +9.5 +8.1 91 +8 +8 1024.2 1008.1
03 16.10 З 1-2
{4}
10 км ясно +7.7 +7.0 95 +7 +7 1024.3 1008.1 +7.7
06 16.10 З 2-4
{5}
50 км 8/0
[Ci fib]
+8.5 +7.0 90 +7 +7 1024.2 1008.1 +6.8
09 16.10 З 2-4
{4}
50 км 8/0
[Ci fib]
+13.9 +7.8 67 +13 +16 1023.7 1007.9
12 16.10 З 3-5
{8}
50 км 9/0
[Ci sp]
+16.1 +5.8 50 +16 +17 1023.2 1007.5
15 16.10 З 2-3
{6}
20 км 9/0
[Ci fib]
+12.0 +5.0 62 +11 +11 1022.3 1006.4 +16.5
18 16.10 ЮЗ 1-3
{6}
20 км ясно +10.5 +5.0 69 +10 +10 1021.8 1005.9
21 16.10 З 3-5
{6}
20 км 8/0
[Ci sp]
+10.4 +4.1 65 +9 +9 1020.7 1004.8
00 17.10 З 3-6
{7}
20 км ясно +9.6 +4.5 70 +7 +7 1020.3 1004.3
03 17.10 З 3-5
{6}
20 км ясно +7.5 +4.0 78 +5 +5 1021.0 1004.8 +7.5
06 17.10 З 2-4
{6}
50 км 10/0
[Ac As]
+7.5 +4.8 83 +5 +6 1022.2 1006.0 +6.5
09 17.10 З 2-4
{6}
50 км 5/5 1500 м
[Cu med, cong]
+12.2 +6.5 68 +11 +13 1022.8 1007.0
12 17.10 СЗ 2-5
{6}
50 км 1/1 1500 м
[Cu hum]
+13.7 +5.9 59 +13 +14 1023.9 1008.0
15 17.10 З 1-2
{6}
20 км ясно +10.0 +6.5 79 +10 +10 1025.0 1009.0 +14.2
18 17.10 штиль 0
{5}
20 км ясно +7.7 +5.8 88 +7 +7 1025.9 1009.7
21 17.10 штиль 0
{1}
20 км ясно +5.0 +4.1 94 +4 +4 1026.5 1010.1
00 18.10 штиль 0
{1}
20 км 1/0
[Ac trans]
+4.6 +3.9 95 +3 +3 1026.2 1009.8
03 18.10 штиль 0
{2}
20 км ясно +5.6 +4.9 95 +4 +4 1025.5 1009.1 +3.8
06 18.10 штиль 0
{2}
35 км ясно +5.3 +4.8 97 +4 +5 1025.1 1008.7
09 18.10 ЮЗ 1-2
{5}
50 км ясно +12.5 +8.2 75 +13 +16 1023.1 1007.3
12 18.10 ЮЗ 1-2
{5}
50 км ясно +14.3 +7.7 64 +15 +16 1021.0 1005.3
15 18.10 З 1-3
{4}
20 км ясно +11.5 +7.1 74 +11 +11 1019.9 1004.0 +15.0
18 18.10 ЮЗ 1-2
{4}
20 км ясно +10.5 +7.4 81 +10 +10 1018.9 1003.0
21 18.10 ЮЗ 1-2
{4}
20 км ясно +9.4 +7.1 86 +9 +9 1018.3 1002.3
00 19.10 ЮЗ 1-2
{4}
20 км ясно +7.9 +6.4 90 +7 +7 1017.6 1001.5
03 19.10 ЮЗ 1-2
{3}
20 км ясно +6.9 +6.2 95 +6 +6 1016.6 1000.5 +6.9
06 19.10 ЮЗ 1-3
{5}
40 км 3/3 1500 м
[Sc]
+9.2 +7.7 90 +9 +9 1015.8 999.8 +6.8
09 19.10 З 4-9
{9}
45 км 4/0
[Ac trans]
+16.4 +9.7 65 +16 +17 1014.3 998.8
12 19.10 З 2-5
{9}
30 км 6/0
[Ac trans]
+15.9 +10.3 69 +16 +17 1013.2 997.7
15 19.10 З 2-3
{6}
10 км 3/0
[Ac trans Ci fib]
+12.7 +10.7 88 +12 +12 1013.5 997.8 +17.1
18 19.10 СЗ 1-2
{4}
10 км 4/0
[Ci fib]
+11.3 +10.5 95 +11 +11 1013.8 997.9
21 19.10 СЗ 1-2
{5}
20 км слабый дождь 10/0
[As op]
+10.1 +7.4 83 +10 +10 1014.5 998.6
00 20.10 З 2-3
{4}
20 км {дождь} 6/0
[As trans]
+7.8 +6.5 91 +6 +6 1015.0 998.9
03 20.10 З 2-4
{4}
10 км ясно +5.1 +4.6 97 +2 +2 1015.7 999.5 -5.1 0.0
06 20.10 З 2-4
{4}
50 км {туман} 1/1 600 м
[Cu hum]
+4.2 +3.7 97 +1 +2 1017.0 1000.7 +4.1
09 20.10 СЗ 4-7
{11}
50 км 10/10 600 м
[Cu Sc]
+7.9 +1.3 63 +5 +5 1018.2 1002.1
12 20.10 СЗ 2-6
{10}
50 км 10/10 600 м
[Cu Sc]
+7.9 +0.9 61 +6 +6 1018.9 1002.7
15 20.10 СЗ 2-5
{7}
20 км 10/10 600 м
[Cu Sc]
+6.9 +1.7 69 +5 +5 1019.7 1003.5 +8.4
18 20.10 З 1-2
{6}
20 км 3/0
[Ac trans Ci fib]
+4.8 +1.8 81 +4 +4 1020.8 1004.5
21 20.10 СЗ 1-2
{3}
20 км 9/9 1000 м
[Sc]
+4.0 +1.7 85 +3 +3 1021.8 1005.4
00 21.10 З 1 20 км 3/0
[Ac trans]
+2.0 +1.2 94 0 0 1022.4 1005.9

 

Местоположение метеостанции Павлово (Нижегородская область, Россия): широта 55.95 долгота 43.03 высота над уровнем моря 131 м.

В архиве по умолчанию представлена погода в Павлово за последнюю неделю. Архивные данные за месяц целиком и за предыдущие месяцы, начиная с января 2011 года, Вы можете получить, выбрав интересующий диапазон дат из раскрывающегося списка и нажав кнопку "Ввод!".


*Определитесь, кто Вы:
робот инопланетянин человек

Внимание! Время в таблицах - всемирное. Для получения местного времени необходимо прибавить поправку, которая в Павлово равна 3 ч.

Смотрите также архив погоды в соседних городах и на ближайших метеорологических станциях:

Погода в Нижнем Новгороде аэропорт (Нижегородская область, Россия) (55 км)
Погода в Балахне (Нижегородская область, Россия) (59 км)
Погода в Вязниках (Владимирская область, Россия) (60 км)
Погода в Дальнем Константиново (Нижегородская область, Россия) (68 км)
Погода в Нижнем Новгороде (Нижегородская область, Россия) (70 км)
Погода в Муроме (Владимирская область, Россия) (74 км)
Погода в Арзамасе (Нижегородская область, Россия) (80 км)
Погода в Волжской ГМО (Нижегородская область, Россия) (85 км)
Погода в Выксе (Нижегородская область, Россия) (90 км)
Погода в Коврове (Владимирская область, Россия) (114 км)

Пояснения к столбцам:

Ветер - указаны скорость ветра в м/с - средняя за 10 мин, порывы в срок и между сроками (в фигурных скобках) и направление, откуда дует ветер: С - северный, СВ - северо-восточный, В - восточный, ЮВ - юго-восточный, Ю - южный, ЮЗ - юго-западный, З - западный, СЗ - северо-западный.
Видимость - горизонтальная дальность видимости в метрах или километрах. При видимости от 1 до 10 км при отсутствии осадков обычно наблюдается дымка, при ухудшении видимости до 1 км и менее - туман. В сухую погоду видимость может ухудшаться дымом, пылью или мглою.
Явления - указаны атмосферные явления, наблюдавшиеся в срок или в последний час перед сроком; фигурными скобками обозначены явления, наблюдавшиеся между сроками (за 1-3 часа до срока); квадратными скобками обозначены град или гололедные отложения с указанием их диаметра в мм.
Облачность - указаны через наклонную черту общая и нижняя облачность в баллах и высота нижней границы облаков в метрах; квадратными скобками обозначены формы облаков: Ci - перистые, Cs - перисто-слоистые, Cc - перисто-кучевые, Ac - высококучевые, As - высокослоистые, Sc - слоисто-кучевые, Ns - слоисто-дождевые, Cu - кучевые, Cb - кучево-дождевые. Подробнее классификацию облаков см. в Атласе облаков (PDF).
T - Температура воздуха - температура, измеренная на высоте 2 м над землей.
Td - Температура точки росы - температура, при понижении до которой содержащийся в воздухе водяной пар достигнет насыщения.
f - Относительная влажность воздуха - влажноcть воздуха, измеренная на высоте 2 м над землей.
Te - Эффективная температура - температура, которую ощущает одетый по сезону человек в тени. Характеристика душности погоды. При расчете учитывается влияние влажности воздуха и скорости ветра на теплоощущения человека.
Tes - Эффективная температура на солнце - температура, которую ощущает человек, с поправкой на солнечный нагрев. Характеристика знойности погоды. Зависит от высоты солнца над горизонтом, облачности и скорости ветра. Ночью, в пасмурную погоду, а также при ветре 12 м/с и более поправка равна нулю.
P - Атмосферное давление - приведенное к уровню моря атмосферное давление.
Po - Атмосферное давление - измеренное на уровне метеостанции атмосферное давление.
Tmin - Минимальная температура - минимум температуры воздуха на высоте 2 м над землей.
Tmax - Максимальная температура - максимум температуры воздуха на высоте 2 м над землей.
R - Количество осадков - Количество выпавших осадков за период времени, мм. При наведении курсора мыши на число - период времени, за который выпало указанное количество осадков.
R24 - Количество осадков - Количество выпавших осадков за 24 часа, мм.
S - Снежный покров - Высота снежного покрова, см. При наведении курсора мыши на число - состояние снежного покрова и степень покрытия местности в баллах.